Regional Weather Roundup
Issued by NWS

Home | Current Version | Previous Version | Graphics & Text | Print | Product List | Glossary On
Versions: 1 2 3 4 5 6 7 8 9 10 11 12 13 14 15 16 17 18 19 20 21 22 23 24 25 26 27 28 29 30 31 32 33 34 35 36 37 38 39 40 41 42 43 44 45 46 47 48 49 50
000
ASUS43 KTOP 290008
RWRKS

WEATHER ROUNDUP FOR KANSAS
NATIONAL WEATHER SERVICE GOODLAND KS
700 PM CDT THU APR 28 2016

NOTE:  "FAIR" INDICATES FEW OR NO CLOUDS BELOW 12,000 FEET WITH NO
SIGNIFICANT WEATHER AND/OR OBSTRUCTIONS TO VISIBILITY.

KSZ001>006-013>018-027>032-041>047-290100-
NORTHWEST KANSAS

CITY           SKY/WX    TMP DP  RH WIND       PRES   REMARKS
GOODLAND       PTSUNNY   50  36  58 E5        30.01R
6HR MIN TEMP:  44; 6HR MAX TEMP:  51;

HAYS           CLOUDY    57  37  47 NE8       29.99R
HILL CITY      SUNNY     57  41  55 NE14      30.00S
6HR MIN TEMP:  50; 6HR MAX TEMP:  59; 6HR PCP: TRACE;

RUSSELL        PTSUNNY   58  43  57 NE10      29.97R
6HR MIN TEMP:  50; 6HR MAX TEMP:  60; 6HR PCP: TRACE;

$$

KSZ061>065-074>080-084>089-290100-
SOUTHWEST KANSAS

CITY           SKY/WX    TMP DP  RH WIND       PRES   REMARKS
DODGE CITY     SUNNY     58  37  45 NE12      29.96R
6HR MIN TEMP:  52; 6HR MAX TEMP:  62;

ELKHART          N/A     61  39  44 NE15        N/A
GARDEN CITY    SUNNY     58  36  43 NE12      29.96R
6HR MIN TEMP:  50; 6HR MAX TEMP:  60;

GREAT BEND     SUNNY     61  43  51 NE10      29.97S
LIBERAL        CLOUDY    63  37  39 E17       29.91S
PRATT          MOSUNNY   61  37  41 E9        29.95S
6HR MIN TEMP:  53; 6HR MAX TEMP:  63;

$$

KSZ066>073-081>083-090>101-290100-
SOUTHEAST KANSAS

CITY           SKY/WX    TMP DP  RH WIND       PRES   REMARKS
CHANUTE        MOSUNNY   67  49  52 NE6       29.97S
6HR MIN TEMP:  60; 6HR MAX TEMP:  69;

COFFEYVILLE    SUNNY     68  50  52 E6        29.95F
6HR MIN TEMP:  62; 6HR MAX TEMP:  70;

HUTCHINSON     MOSUNNY   62  44  51 NE10      29.95S
6HR MIN TEMP:  58; 6HR MAX TEMP:  66;

MEDICINE LODGE   N/A     64  44  48 E7        29.94R
NEWTON         PTSUNNY   61  43  51 NE5       29.98S
PARSONS        SUNNY     67  50  54 CALM      29.97S
6HR MIN TEMP:  62; 6HR MAX TEMP:  70;

WICHITA INTL   PTSUNNY   66  47  50 NE12      29.93S
6HR MIN TEMP:  59; 6HR MAX TEMP:  69;

WICHITA JABRA  SUNNY     63  47  55 NE9       29.94S
6HR MIN TEMP:  58; 6HR MAX TEMP:  66;

WICHITA MCCONL SUNNY     65  47  51 NE10      29.93F
WINFIELD       CLOUDY    68  46  45 E10       29.92F
6HR MIN TEMP:  60; 6HR MAX TEMP:  70;

$$

KSZ007>012-019>026-033>040-048>060-102>105-290100-
NORTHEAST KANSAS

CITY           SKY/WX    TMP DP  RH WIND       PRES   REMARKS
CONCORDIA      CLOUDY    54  43  66 N10       30.01R
6HR MIN TEMP:  51; 6HR MAX TEMP:  58;

EMPORIA        PTSUNNY   62  47  57 NE8       29.97S
6HR MIN TEMP:  56; 6HR MAX TEMP:  64;

LAWRENCE       SUNNY     59  47  64 N10       30.00R
6HR MIN TEMP:  57; 6HR MAX TEMP:  62;

MANHATTAN      PTSUNNY   59  44  57 NE7       29.99S
6HR MIN TEMP:  57; 6HR MAX TEMP:  62; 6HR PCP: TRACE;

MARYSVILLE     CLOUDY    52  45  76 N9        30.02R
OLATHE IND     SUNNY     59  48  67 N12       30.01R
6HR MIN TEMP:  57; 6HR MAX TEMP:  62;

OLATHE EXE     MOSUNNY   59  46  62 N9        30.00R
6HR MIN TEMP:  57; 6HR MAX TEMP:  63;

SALINA         PTSUNNY   61  44  53 NE10      29.98R
6HR MIN TEMP:  56; 6HR MAX TEMP:  63;

TOPEKA BILLARD SUNNY     59  46  62 N9        30.00R
6HR MIN TEMP:  56; 6HR MAX TEMP:  63;

TOPEKA FORBES  MOSUNNY   61  46  57 N8        29.99S
6HR MIN TEMP:  57; 6HR MAX TEMP:  63;

$$



USA.gov is the U.S. government's official web portal to all federal, state and local government web resources and services.